Volver al catálogo

STARLINK-5608

ActivoComunicacionesVLEO
NORAD 55353·PAYLOAD·🇺🇸 United States

Lanzado Jan 26, 2023 desde Cape Canaveral Space Force Station

Loading…

Próximos Pases (próximas 24 horas)

TLE

ActualizadoSource: CelesTrak SupGP

Época: Sep 14, 2026, 20:46 UTC

1 55353C 23013Y   26257.86576389 -.00053555  00000+0 -19397-2 0  2576
2 55353  43.0002 311.3992 0001560 264.1446 257.1896 15.27605825    19

Sigue STARLINK-5608 en tiempo real con AllMySat

Download on the App Store